Roosevelt Roads, PR

5:51 AM AST on February 18, 2018 (GMT -0400)
Roosevelt Roads Ns

Weather History for TJNR - March, 2013

Change the Weather History Date:

Friday, March 8, 2013

  Actual Average Record
Temperature  
Mean Temperature 74 °F -  
Max Temperature 80 °F 80 °F 84 °F (2003)
Min Temperature 68 °F 70 °F 68 °F (2001)
Cooling Degree Days 10    
Growing Degree Days 24 (Base 50)    
Moisture  
Dew Point 68 °F    
Average Humidity 80    
Maximum Humidity 90    
Minimum Humidity 62    
Precipitation  
Precipitation 0.00 in - - ()
Sea Level Pressure  
Sea Level Pressure 30.02 in    
Wind  
Wind Speed 7 mph (North)    
Max Wind Speed 15 mph    
Max Gust Speed -    
Visibility 10 miles    
Events Rain    
Averages and records for this station are not official NWS values.
T = Trace of Precipitation, MM = Missing Value Source: NWS Daily Summary

Daily Weather History Graph

Daily Weather History Graph

Search for Another Location

Airport or City:

Trip Planner

Search our weather history database for the weather conditions in past years. The results will help you decide how hot, cold, wet, or windy it might be!

Date:

Astronomy

Mar. 08, 2013 Rise Set
Actual Time 6:36 AM AST 6:30 PM AST
Civil Twilight 6:14 AM AST 6:52 PM AST
Nautical Twilight 5:48 AM AST 7:17 PM AST
Astronomical Twilight 5:23 AM AST 7:43 PM AST
Moon 3:54 AM AST (3/8) 3:41 PM AST (3/8)
Length of Visible Light 12h 38m
Length of Day
11h 54m
Waning Crescent, 12% of the Moon is Illuminated
Mar 8
Waning Crescent
Mar 11
New
Mar 19
First Quarter
Mar 27
Full
Apr 3
Last Quarter

Hourly Weather History & Observations

Time (AST) Temp. Heat Index Dew Point Humidity Pressure Visibility Wind Dir Wind Speed Gust Speed Precip Events Conditions
12:53 AM 75.9 °F - 70.0 °F 82% 30.02 in 10.0 mi NNW 6.9 mph - N/A   Overcast
1:53 AM 75.0 °F - 70.0 °F 84% 30.00 in 10.0 mi North 5.8 mph - N/A   Mostly Cloudy
2:53 AM 75.0 °F - 69.1 °F 82% 29.98 in 10.0 mi NNW 5.8 mph - N/A   Overcast
3:53 AM 75.0 °F - 69.1 °F 82% 29.97 in 10.0 mi North 5.8 mph - N/A   Mostly Cloudy
4:53 AM 73.9 °F - 69.1 °F 85% 29.98 in 10.0 mi Calm Calm - N/A   Mostly Cloudy
5:53 AM 73.9 °F - 69.1 °F 85% 30.00 in 10.0 mi North 4.6 mph - N/A   Clear
6:53 AM 73.9 °F - 70.0 °F 87% 30.02 in 10.0 mi Calm Calm - N/A   Scattered Clouds
7:53 AM 77.0 °F - 71.1 °F 82% 30.04 in 10.0 mi NNW 5.8 mph - N/A   Mostly Cloudy
8:53 AM 79.0 °F - 70.0 °F 74% 30.06 in 10.0 mi North 9.2 mph - N/A   Overcast
9:53 AM 78.1 °F - 72.0 °F 81% 30.07 in 5.0 mi NNE 9.2 mph - 0.00 in Rain Light Rain
10:53 AM 77.0 °F - 72.0 °F 84% 30.07 in 10.0 mi North 10.4 mph - 0.00 in   Overcast
11:53 AM 80.1 °F 82.9 °F 69.1 °F 69% 30.05 in 10.0 mi NNE 10.4 mph - N/A   Overcast
12:53 PM - - - N/A% 30.03 in 10.0 mi NE 13.8 mph - N/A   Mostly Cloudy
1:16 PM - - - N/A% 30.02 in 10.0 mi NE 15.0 mph - N/A   Scattered Clouds
1:53 PM - - - N/A% 30.02 in 10.0 mi NE 15.0 mph - N/A   Scattered Clouds
2:53 PM - - - N/A% 30.01 in 10.0 mi NNE 8.1 mph - N/A   Overcast
3:53 PM 78.1 °F - 70.0 °F 76% 29.99 in 10.0 mi NE 9.2 mph - 0.00 in   Overcast
4:53 PM 77.0 °F - 68.0 °F 74% 30.01 in 10.0 mi NNE 9.2 mph - N/A   Overcast
5:53 PM 75.9 °F - 68.0 °F 76% 30.01 in 10.0 mi NNE 6.9 mph - 0.00 in   Overcast
6:53 PM 75.0 °F - 61.0 °F 62% 30.02 in 10.0 mi NNW 5.8 mph - N/A   Overcast
7:53 PM - - - N/A% 30.04 in 10.0 mi NNW 3.5 mph - N/A   Mostly Cloudy
8:53 PM - - - N/A% 30.04 in 10.0 mi NW 3.5 mph - N/A   Partly Cloudy
9:53 PM 70.0 °F - 64.0 °F 81% 30.04 in 10.0 mi Calm Calm - N/A   Clear
10:53 PM 69.1 °F - 64.0 °F 84% 30.03 in 10.0 mi NW 3.5 mph - N/A   Clear
11:53 PM 68.0 °F - 64.9 °F 90% 30.03 in 10.0 mi Calm Calm - N/A   Clear